CPA565 RCTP-VHHH

Flight info

Callsign CPA565
Flight time 1h 21m
Altitude 32000
Route CHALI1A CHALI T3 MKG A1 ELATO V522 ABBEY
Aircraft B77W/H-SDE1E2E3FGHIJ2J3J4J5M1RWXY/LB1D1

Departure

Time 2026-05-07 19:10
Airport Taiwan Taoyuan International Airport (RCTP)

Arrival

Time 2026-05-07 20:31
Airport Hong Kong International Airport (VHHH)
Time Latitude Longitude Altitude Speed Heading
2026-05-07 18:38 25.07366 121.23151 123 ft 0 kts 319°
2026-05-07 18:57 25.07360 121.23157 122 ft 0 kts 319°
2026-05-07 18:57 25.07352 121.23164 122 ft 2 kts 315°
2026-05-07 18:57 25.07342 121.23177 122 ft 2 kts 304°
2026-05-07 18:57 25.07334 121.23190 122 ft 2 kts 296°
2026-05-07 18:58 25.07328 121.23206 122 ft 2 kts 288°
2026-05-07 18:58 25.07324 121.23222 122 ft 2 kts 280°
2026-05-07 18:58 25.07323 121.23238 122 ft 2 kts 272°
2026-05-07 18:58 25.07323 121.23254 122 ft 2 kts 263°
2026-05-07 18:59 25.07325 121.23270 122 ft 2 kts 255°
2026-05-07 18:59 25.07330 121.23286 122 ft 2 kts 247°
2026-05-07 18:59 25.07337 121.23300 122 ft 2 kts 238°
2026-05-07 18:59 25.07344 121.23313 122 ft 0 kts 231°
2026-05-07 19:00 25.07346 121.23315 122 ft 0 kts 230°
2026-05-07 19:02 25.07344 121.23313 122 ft 2 kts 230°
2026-05-07 19:02 25.07323 121.23285 122 ft 7 kts 229°
2026-05-07 19:02 25.07279 121.23230 122 ft 10 kts 229°
2026-05-07 19:02 25.07232 121.23173 122 ft 9 kts 227°
2026-05-07 19:03 25.07187 121.23118 122 ft 9 kts 228°
2026-05-07 19:03 25.07145 121.23066 122 ft 8 kts 228°
2026-05-07 19:03 25.07106 121.23018 122 ft 8 kts 228°
2026-05-07 19:03 25.07069 121.22971 122 ft 7 kts 228°
2026-05-07 19:04 25.07033 121.22927 122 ft 7 kts 228°
2026-05-07 19:04 25.06999 121.22885 122 ft 7 kts 228°
2026-05-07 19:04 25.06965 121.22844 122 ft 7 kts 228°
2026-05-07 19:04 25.06929 121.22799 122 ft 8 kts 228°
2026-05-07 19:05 25.06891 121.22752 122 ft 8 kts 228°
2026-05-07 19:05 25.06850 121.22701 122 ft 9 kts 228°
2026-05-07 19:05 25.06808 121.22648 122 ft 9 kts 229°
2026-05-07 19:05 25.06765 121.22592 122 ft 9 kts 226°
2026-05-07 19:06 25.06709 121.22560 122 ft 8 kts 187°
2026-05-07 19:06 25.06618 121.22613 122 ft 7 kts 123°
2026-05-07 19:06 25.06574 121.22627 122 ft 8 kts 200°
2026-05-07 19:07 25.06521 121.22585 122 ft 10 kts 223°
2026-05-07 19:07 25.06467 121.22523 122 ft 11 kts 227°
2026-05-07 19:07 25.06416 121.22459 122 ft 10 kts 228°
2026-05-07 19:07 25.06368 121.22401 122 ft 9 kts 229°
2026-05-07 19:08 25.06322 121.22347 122 ft 9 kts 215°
2026-05-07 19:08 25.06264 121.22336 122 ft 8 kts 162°
2026-05-07 19:08 25.06219 121.22373 122 ft 8 kts 135°
2026-05-07 19:08 25.06189 121.22423 122 ft 7 kts 107°
2026-05-07 19:09 25.06188 121.22475 122 ft 6 kts 64°
2026-05-07 19:09 25.06217 121.22511 122 ft 6 kts 46°
2026-05-07 19:09 25.06334 121.22655 123 ft 61 kts 48°
2026-05-07 19:09 25.06796 121.23241 123 ft 140 kts 48°
2026-05-07 19:10 25.07580 121.24225 314 ft 191 kts 47°
2026-05-07 19:10 25.08505 121.25397 885 ft 220 kts 49°
2026-05-07 19:10 25.09476 121.26636 2185 ft 212 kts 49°
2026-05-07 19:10 25.10437 121.27888 2925 ft 224 kts 51°
2026-05-07 19:11 25.11453 121.29269 3570 ft 241 kts 51°
2026-05-07 19:11 25.12644 121.30634 4168 ft 259 kts 33°
2026-05-07 19:11 25.14391 121.31292 4817 ft 273 kts 359°
2026-05-07 19:11 25.16204 121.30800 5723 ft 274 kts 327°
2026-05-07 19:12 25.17573 121.29387 6696 ft 274 kts 308°
2026-05-07 19:12 25.18742 121.27753 7700 ft 275 kts 306°
2026-05-07 19:12 25.19911 121.26084 8595 ft 281 kts 306°
2026-05-07 19:12 25.21101 121.24382 9531 ft 283 kts 306°
2026-05-07 19:13 25.22311 121.22651 10450 ft 288 kts 305°
2026-05-07 19:13 25.23564 121.20855 11061 ft 303 kts 305°
2026-05-07 19:13 25.24759 121.18873 11652 ft 317 kts 296°
2026-05-07 19:13 25.25606 121.16604 12251 ft 331 kts 285°
2026-05-07 19:14 25.26034 121.14038 12880 ft 344 kts 273°
2026-05-07 19:14 25.25953 121.11384 13471 ft 358 kts 261°
2026-05-07 19:14 25.25303 121.08671 14079 ft 372 kts 249°
2026-05-07 19:14 25.24058 121.06119 14712 ft 384 kts 235°
2026-05-07 19:15 25.22332 121.03858 15520 ft 391 kts 229°
2026-05-07 19:15 25.20519 121.01644 16413 ft 393 kts 230°
2026-05-07 19:15 25.18603 120.99504 17272 ft 396 kts 225°
2026-05-07 19:15 25.16575 120.97417 18041 ft 401 kts 225°
2026-05-07 19:16 25.14529 120.95296 18790 ft 406 kts 226°
2026-05-07 19:16 25.12456 120.93122 19531 ft 411 kts 226°
2026-05-07 19:16 25.10413 120.90949 20248 ft 415 kts 226°
2026-05-07 19:16 25.08332 120.88724 20930 ft 420 kts 226°
2026-05-07 19:17 25.06226 120.86466 21598 ft 425 kts 226°
2026-05-07 19:17 25.04076 120.84160 22271 ft 429 kts 227°
2026-05-07 19:17 25.01951 120.81878 22918 ft 434 kts 227°
2026-05-07 19:17 24.99772 120.79537 23569 ft 438 kts 227°
2026-05-07 19:18 24.97578 120.77179 24249 ft 441 kts 227°
2026-05-07 19:18 24.95393 120.74832 24914 ft 444 kts 227°
2026-05-07 19:18 24.93173 120.72448 25526 ft 449 kts 227°
2026-05-07 19:18 24.90929 120.70038 26094 ft 454 kts 227°
2026-05-07 19:19 24.88663 120.67606 26689 ft 458 kts 227°
2026-05-07 19:19 24.86364 120.65140 27327 ft 461 kts 227°
2026-05-07 19:19 24.84066 120.62677 27900 ft 465 kts 227°
2026-05-07 19:19 24.81745 120.60190 28465 ft 469 kts 227°
2026-05-07 19:20 24.79398 120.57675 29040 ft 473 kts 227°
2026-05-07 19:20 24.77041 120.55153 29684 ft 476 kts 228°
2026-05-07 19:20 24.74672 120.52619 30438 ft 475 kts 228°
2026-05-07 19:20 24.72167 120.50242 31267 ft 476 kts 221°
2026-05-07 19:21 24.69456 120.48129 31838 ft 478 kts 219°
2026-05-07 19:21 24.66698 120.46038 31923 ft 479 kts 219°
2026-05-07 19:21 24.61246 120.41917 31929 ft 475 kts 219°
2026-05-07 19:22 24.55806 120.37804 31931 ft 474 kts 219°
2026-05-07 19:22 24.50345 120.33678 31933 ft 475 kts 219°
2026-05-07 19:23 24.44881 120.29552 31946 ft 476 kts 219°
2026-05-07 19:23 24.39470 120.25352 31943 ft 475 kts 219°
2026-05-07 19:24 24.34083 120.21159 31942 ft 476 kts 219°
2026-05-07 19:24 24.28681 120.16963 31932 ft 476 kts 219°
2026-05-07 19:25 24.23280 120.12775 31934 ft 475 kts 219°
2026-05-07 19:25 24.17856 120.08573 31935 ft 477 kts 220°
2026-05-07 19:26 24.12458 120.04398 31932 ft 477 kts 219°
2026-05-07 19:26 24.07019 120.00197 31931 ft 477 kts 219°
2026-05-07 19:27 24.01592 119.96008 31929 ft 477 kts 219°
2026-05-07 19:27 23.96153 119.91818 31934 ft 478 kts 219°
2026-05-07 19:28 23.90707 119.87627 31933 ft 477 kts 220°
2026-05-07 19:28 23.85288 119.83460 31927 ft 477 kts 219°
2026-05-07 19:29 23.79856 119.79288 31927 ft 479 kts 219°
2026-05-07 19:29 23.74399 119.75101 31925 ft 478 kts 219°
2026-05-07 19:30 23.68921 119.70903 31927 ft 479 kts 219°
2026-05-07 19:30 23.63451 119.66715 31928 ft 479 kts 219°
2026-05-07 19:31 23.58619 119.61813 31926 ft 474 kts 236°
2026-05-07 19:31 23.55007 119.55902 31925 ft 468 kts 241°
2026-05-07 19:32 23.51592 119.50004 31922 ft 467 kts 241°
2026-05-07 19:32 23.48124 119.44020 31923 ft 468 kts 242°
2026-05-07 19:33 23.44658 119.38053 31917 ft 467 kts 242°
2026-05-07 19:33 23.41155 119.32027 31923 ft 469 kts 241°
2026-05-07 19:34 23.37688 119.26073 31920 ft 468 kts 241°
2026-05-07 19:34 23.34190 119.20071 31913 ft 468 kts 241°
2026-05-07 19:35 23.30701 119.14094 31911 ft 468 kts 241°
2026-05-07 19:35 23.27224 119.08143 31913 ft 468 kts 241°
2026-05-07 19:36 23.23731 119.02172 31910 ft 469 kts 241°
2026-05-07 19:36 23.20239 118.96209 31911 ft 469 kts 240°
2026-05-07 19:37 23.16747 118.90254 31910 ft 469 kts 240°
2026-05-07 19:37 23.13224 118.84253 31910 ft 469 kts 241°
2026-05-07 19:38 23.09733 118.78313 31908 ft 472 kts 240°
2026-05-07 19:38 23.06196 118.72302 31910 ft 471 kts 240°
2026-05-07 19:39 23.02666 118.66309 31909 ft 472 kts 240°
2026-05-07 19:39 22.99144 118.60338 31907 ft 471 kts 240°
2026-05-07 19:40 22.95626 118.54381 31908 ft 470 kts 240°
2026-05-07 19:40 22.92073 118.48396 31908 ft 472 kts 240°
2026-05-07 19:41 22.88504 118.42400 31906 ft 473 kts 240°
2026-05-07 19:41 22.84935 118.36412 31904 ft 472 kts 240°
2026-05-07 19:42 22.81388 118.30466 31909 ft 472 kts 240°
2026-05-07 19:42 22.77820 118.24491 31910 ft 473 kts 240°
2026-05-07 19:43 22.74237 118.18497 31910 ft 474 kts 240°
2026-05-07 19:43 22.70649 118.12502 31917 ft 473 kts 240°
2026-05-07 19:44 22.67073 118.06535 31919 ft 474 kts 240°
2026-05-07 19:44 22.63494 118.00569 31926 ft 472 kts 240°
2026-05-07 19:45 22.59888 117.94563 31921 ft 475 kts 240°
2026-05-07 19:45 22.56340 117.88589 31915 ft 474 kts 240°
2026-05-07 19:46 22.52763 117.82567 31911 ft 475 kts 240°
2026-05-07 19:46 22.49204 117.76585 31907 ft 475 kts 240°
2026-05-07 19:47 22.45615 117.70561 31908 ft 475 kts 240°
2026-05-07 19:47 22.42044 117.64574 31907 ft 476 kts 240°
2026-05-07 19:48 22.38469 117.58588 31907 ft 475 kts 240°
2026-05-07 19:48 22.35140 117.52481 31902 ft 471 kts 249°
2026-05-07 19:49 22.33401 117.45743 31909 ft 465 kts 265°
2026-05-07 19:49 22.33130 117.38783 31908 ft 463 kts 271°
2026-05-07 19:50 22.33009 117.31850 31915 ft 464 kts 271°
2026-05-07 19:50 22.32883 117.24888 31914 ft 463 kts 271°
2026-05-07 19:51 22.32753 117.17940 31912 ft 464 kts 270°
2026-05-07 19:51 22.32620 117.11012 31914 ft 464 kts 270°
2026-05-07 19:52 22.32483 117.04037 31909 ft 464 kts 270°
2026-05-07 19:52 22.32344 116.97126 31912 ft 463 kts 270°
2026-05-07 19:53 22.32201 116.90172 31911 ft 464 kts 271°
2026-05-07 19:53 22.32056 116.83241 31912 ft 462 kts 271°
2026-05-07 19:54 22.31908 116.76319 31911 ft 464 kts 270°
2026-05-07 19:54 22.31756 116.69340 31911 ft 464 kts 270°
2026-05-07 19:55 22.31602 116.62435 31910 ft 463 kts 270°
2026-05-07 19:55 22.31444 116.55474 31908 ft 464 kts 271°
2026-05-07 19:56 22.31284 116.48543 31909 ft 462 kts 271°
2026-05-07 19:56 22.31121 116.41597 31908 ft 463 kts 271°
2026-05-07 19:57 22.30955 116.34650 31908 ft 464 kts 270°
2026-05-07 19:57 22.30785 116.27705 31914 ft 462 kts 270°
2026-05-07 19:58 22.30614 116.20781 31910 ft 463 kts 270°
2026-05-07 19:58 22.30439 116.13872 31914 ft 463 kts 270°
2026-05-07 19:59 22.30261 116.06932 31906 ft 462 kts 270°
2026-05-07 19:59 22.30172 116.03508 31490 ft 456 kts 270°
2026-05-07 19:59 22.30082 116.00061 30655 ft 457 kts 270°
2026-05-07 20:00 22.29992 115.96684 30172 ft 451 kts 270°
2026-05-07 20:00 22.29903 115.93318 29731 ft 445 kts 270°
2026-05-07 20:00 22.29813 115.90012 29255 ft 439 kts 270°
2026-05-07 20:00 22.29725 115.86739 28762 ft 438 kts 270°
2026-05-07 20:01 22.29636 115.83418 28274 ft 449 kts 270°
2026-05-07 20:01 22.29546 115.80049 27763 ft 450 kts 270°
2026-05-07 20:01 22.29457 115.76682 27243 ft 447 kts 270°
2026-05-07 20:01 22.29369 115.73357 26723 ft 443 kts 270°
2026-05-07 20:02 22.29281 115.70061 26206 ft 439 kts 270°
2026-05-07 20:02 22.29193 115.66773 25686 ft 435 kts 270°
2026-05-07 20:02 22.29106 115.63557 25170 ft 431 kts 270°
2026-05-07 20:02 22.29018 115.60335 24655 ft 427 kts 270°
2026-05-07 20:03 22.28931 115.57143 24135 ft 423 kts 270°
2026-05-07 20:03 22.28844 115.54009 23622 ft 420 kts 270°
2026-05-07 20:03 22.28758 115.50895 23121 ft 417 kts 270°
2026-05-07 20:03 22.28670 115.47763 22601 ft 413 kts 270°
2026-05-07 20:04 22.28584 115.44707 22092 ft 411 kts 270°
2026-05-07 20:04 22.28497 115.41654 21585 ft 408 kts 270°
2026-05-07 20:04 22.28410 115.38602 21069 ft 405 kts 270°
2026-05-07 20:04 22.28323 115.35571 20553 ft 403 kts 270°
2026-05-07 20:05 22.28235 115.32553 20047 ft 400 kts 269°
2026-05-07 20:05 22.28145 115.29584 19537 ft 397 kts 269°
2026-05-07 20:05 22.28054 115.26594 19022 ft 395 kts 269°
2026-05-07 20:05 22.27963 115.23645 18505 ft 393 kts 269°
2026-05-07 20:06 22.27873 115.20720 17995 ft 391 kts 269°
2026-05-07 20:06 22.27783 115.17835 17494 ft 388 kts 269°
2026-05-07 20:06 22.27692 115.14901 16976 ft 386 kts 269°
2026-05-07 20:06 22.27602 115.12026 16472 ft 384 kts 269°
2026-05-07 20:07 22.27511 115.09164 15960 ft 382 kts 269°
2026-05-07 20:07 22.27422 115.06343 15447 ft 380 kts 269°
2026-05-07 20:07 22.27331 115.03497 14936 ft 378 kts 268°
2026-05-07 20:07 22.27241 115.00665 14419 ft 376 kts 268°
2026-05-07 20:08 22.27150 114.97865 13910 ft 373 kts 268°
2026-05-07 20:08 22.27060 114.95082 13404 ft 371 kts 268°
2026-05-07 20:08 22.26970 114.92312 12891 ft 369 kts 268°
2026-05-07 20:08 22.26880 114.89557 12385 ft 366 kts 268°
2026-05-07 20:09 22.26790 114.86842 11884 ft 364 kts 268°
2026-05-07 20:09 22.26700 114.84114 11377 ft 362 kts 268°
2026-05-07 20:09 22.26571 114.81433 10981 ft 356 kts 262°
2026-05-07 20:10 22.24662 114.76771 10847 ft 333 kts 233°
2026-05-07 20:10 22.23174 114.74897 10675 ft 329 kts 229°
2026-05-07 20:10 22.21581 114.73117 10520 ft 327 kts 226°
2026-05-07 20:10 22.19976 114.71422 10407 ft 320 kts 225°
2026-05-07 20:11 22.18387 114.69777 10281 ft 309 kts 225°
2026-05-07 20:11 22.16870 114.68215 10157 ft 298 kts 225°
2026-05-07 20:11 22.14902 114.66193 9990 ft 285 kts 225°
2026-05-07 20:11 22.13481 114.64735 9860 ft 278 kts 225°
2026-05-07 20:12 22.12557 114.63786 9774 ft 277 kts 225°
2026-05-07 20:12 22.11160 114.62352 9643 ft 276 kts 225°
2026-05-07 20:12 22.09762 114.60918 9510 ft 276 kts 225°
2026-05-07 20:12 22.08370 114.59490 9379 ft 276 kts 225°
2026-05-07 20:13 22.06972 114.58057 9251 ft 276 kts 225°
2026-05-07 20:13 22.05577 114.56627 9121 ft 277 kts 225°
2026-05-07 20:13 22.04181 114.55197 8987 ft 275 kts 225°
2026-05-07 20:13 22.02803 114.53754 8854 ft 275 kts 231°
2026-05-07 20:14 22.01821 114.52008 8727 ft 274 kts 246°
2026-05-07 20:14 22.01065 114.50115 8608 ft 274 kts 249°
2026-05-07 20:14 22.00341 114.48205 8487 ft 273 kts 249°
2026-05-07 20:14 21.99631 114.46339 8368 ft 272 kts 249°
2026-05-07 20:15 21.98906 114.44439 8241 ft 272 kts 248°
2026-05-07 20:15 21.98191 114.42570 8116 ft 271 kts 248°
2026-05-07 20:15 21.97472 114.40694 7996 ft 270 kts 248°
2026-05-07 20:15 21.96512 114.38187 7836 ft 270 kts 248°
2026-05-07 20:16 21.96034 114.36940 7755 ft 270 kts 248°
2026-05-07 20:16 21.95311 114.35055 7633 ft 270 kts 248°
2026-05-07 20:16 21.94599 114.33199 7514 ft 269 kts 248°
2026-05-07 20:16 21.93883 114.31334 7394 ft 269 kts 248°
2026-05-07 20:17 21.93173 114.29481 7275 ft 270 kts 248°
2026-05-07 20:17 21.92456 114.27616 7153 ft 269 kts 248°
2026-05-07 20:17 21.91735 114.25738 7030 ft 269 kts 248°
2026-05-07 20:17 21.91023 114.23888 6910 ft 268 kts 248°
2026-05-07 20:18 21.90307 114.22025 6790 ft 268 kts 248°
2026-05-07 20:18 21.89747 114.20148 6651 ft 265 kts 265°
2026-05-07 20:18 21.89967 114.18179 6531 ft 266 kts 290°
2026-05-07 20:18 21.90732 114.16362 6426 ft 267 kts 297°
2026-05-07 20:19 21.91624 114.14590 6304 ft 265 kts 298°
2026-05-07 20:19 21.92524 114.12851 6184 ft 266 kts 298°
2026-05-07 20:19 21.93429 114.11103 6065 ft 266 kts 298°
2026-05-07 20:19 21.94320 114.09381 5946 ft 266 kts 298°
2026-05-07 20:20 21.95224 114.07632 5828 ft 266 kts 298°
2026-05-07 20:20 21.96122 114.05893 5708 ft 266 kts 298°
2026-05-07 20:20 21.97021 114.04153 5589 ft 265 kts 298°
2026-05-07 20:20 21.97923 114.02406 5467 ft 263 kts 298°
2026-05-07 20:21 21.98805 114.00696 5352 ft 263 kts 298°
2026-05-07 20:21 21.99696 113.98969 5232 ft 262 kts 298°
2026-05-07 20:21 22.00581 113.97254 5115 ft 263 kts 298°
2026-05-07 20:21 22.01472 113.95525 4995 ft 261 kts 298°
2026-05-07 20:22 22.02354 113.93815 4882 ft 261 kts 298°
2026-05-07 20:22 22.03228 113.92117 4763 ft 260 kts 298°
2026-05-07 20:22 22.04106 113.90414 4647 ft 260 kts 298°
2026-05-07 20:22 22.04985 113.88706 4532 ft 260 kts 298°
2026-05-07 20:23 22.05867 113.86992 4415 ft 260 kts 298°
2026-05-07 20:23 22.06726 113.85323 4299 ft 259 kts 299°
2026-05-07 20:23 22.07601 113.83624 4184 ft 259 kts 299°
2026-05-07 20:23 22.08762 113.81364 4030 ft 258 kts 299°
2026-05-07 20:24 22.09341 113.80239 3954 ft 259 kts 299°
2026-05-07 20:24 22.10219 113.78573 3832 ft 258 kts 305°
2026-05-07 20:24 22.11510 113.77280 3711 ft 256 kts 329°
2026-05-07 20:24 22.13062 113.76400 3603 ft 248 kts 334°
2026-05-07 20:25 22.14597 113.75629 3495 ft 239 kts 335°
2026-05-07 20:25 22.16011 113.74927 3399 ft 231 kts 335°
2026-05-07 20:25 22.17458 113.74206 3298 ft 222 kts 335°
2026-05-07 20:25 22.18825 113.73525 3201 ft 214 kts 335°
2026-05-07 20:26 22.20140 113.72887 3108 ft 213 kts 341°
2026-05-07 20:26 22.21540 113.72743 2995 ft 208 kts 13°
2026-05-07 20:26 22.22799 113.73455 2784 ft 205 kts 40°
2026-05-07 20:26 22.23835 113.74420 2599 ft 191 kts 41°
2026-05-07 20:27 22.24817 113.75335 2431 ft 180 kts 41°
2026-05-07 20:27 22.26009 113.76445 2213 ft 164 kts 42°
2026-05-07 20:27 22.26575 113.76973 2116 ft 157 kts 42°
2026-05-07 20:27 22.27364 113.78210 1930 ft 151 kts 73°
2026-05-07 20:28 22.27567 113.78934 1837 ft 151 kts 73°
2026-05-07 20:28 22.27903 113.80002 1694 ft 150 kts 71°
2026-05-07 20:28 22.28248 113.81052 1545 ft 149 kts 71°
2026-05-07 20:28 22.28586 113.82096 1389 ft 149 kts 71°
2026-05-07 20:29 22.29046 113.83512 1173 ft 149 kts 71°
2026-05-07 20:29 22.29267 113.84193 1065 ft 148 kts 71°
2026-05-07 20:29 22.29717 113.85577 839 ft 148 kts 71°
2026-05-07 20:29 22.29939 113.86275 713 ft 148 kts 72°
2026-05-07 20:30 22.30395 113.87663 461 ft 148 kts 69°
2026-05-07 20:30 22.30636 113.88339 357 ft 146 kts 70°
2026-05-07 20:30 22.30968 113.89355 169 ft 147 kts 72°
2026-05-07 20:30 22.31294 113.90368 52 ft 143 kts 71°
2026-05-07 20:31 22.31603 113.91340 42 ft 132 kts 71°
2026-05-07 20:31 22.31827 113.92055 42 ft 71 kts 71°
2026-05-07 20:31 22.31933 113.92429 42 ft 50 kts 81°
2026-05-07 20:31 22.31927 113.92584 42 ft 5 kts 99°
2026-05-07 20:32 22.31919 113.92635 42 ft 0 kts 99°
2026-05-07 20:34 22.31914 113.92665 42 ft 6 kts 99°
2026-05-07 20:34 22.31909 113.92701 42 ft 8 kts 99°
2026-05-07 20:34 22.31900 113.92768 42 ft 9 kts 95°
2026-05-07 20:34 22.31899 113.92821 42 ft 1 kts 90°
2026-05-07 20:35 22.31890 113.92883 42 ft 9 kts 117°
2026-05-07 20:35 22.31865 113.92927 42 ft 11 kts 120°
2026-05-07 20:35 22.31857 113.93013 42 ft 12 kts 76°
2026-05-07 20:35 22.31851 113.93123 42 ft 10 kts 113°
2026-05-07 20:36 22.31822 113.93160 42 ft 9 kts 127°
2026-05-07 20:36 22.31810 113.93221 42 ft 8 kts 82°
2026-05-07 20:36 22.31815 113.93245 42 ft 0 kts 72°